Date String (YYYY-MM-DD hh:mm:ss) UTC,Instrument flags,absolute air pressure of the measurement (hPa),sample flow rate (lpm),inlet stack bypass flow (lpm),air temperature of the measurement (°C),ambient temperature measured by the external sensor (°C),aerosol sample conditioner tube jacket temperature (°C),OPC LED temperature (°C),internal box temperature (°C),relative humidity of the measurement (%),span deviation,mass concentration of particles derived from Lorenz-Mie calculation of OPC scattering (μg/m³),mass concentration of particles derived from Lorenz-Mie calculation of OPC scattering (μg/m³),mass concentration of particles derived from Lorenz-Mie calculation of OPC scattering (μg/m³)
DateTimeUTC,F1_M11,P_M11,Q1_M11,Q2_M11,T1_M11,T2_M11,T3_M11,T4_M11,T5_M11,U1_M11,ZSPAN_M11,X0_M11,X2_M11,X1_M11
2023-07-24 21:00:00,SystemResetWarning,0834.2,4.99,000.00,028.5,026.1,000.0,036.7,030.0,25.2,0000.0,0013.13,0004.61,0004.00
2023-07-24 21:01:00,SystemResetWarning,0834.2,5.00,000.00,028.5,026.6,000.0,036.8,030.1,25.0,0000.0,0013.05,0004.63,0004.02
2023-07-24 21:02:00,SystemResetWarning,0834.2,5.01,000.00,028.6,027.0,000.0,036.8,030.3,24.4,0000.0,0012.82,0004.63,0004.03
2023-07-24 21:03:00,SystemResetWarning,0834.3,5.00,000.00,028.6,026.7,000.0,036.8,030.2,25.2,0000.0,0012.55,0004.67,0004.04
2023-07-24 21:04:00,SystemResetWarning,0834.2,4.99,000.00,028.5,025.4,000.0,036.7,030.0,26.4,0000.0,0012.34,0004.69,0004.07
2023-07-24 21:05:00,SystemResetWarning,0834.2,5.01,000.00,028.5,025.0,000.0,036.6,029.9,25.3,0000.0,0012.61,0004.72,0004.09
2023-07-24 21:06:00,SystemResetWarning,0834.2,5.01,000.00,028.4,025.3,000.0,036.6,029.9,27.2,0000.0,0012.96,0004.74,0004.11
2023-07-24 21:07:00,SystemResetWarning,0834.2,4.99,000.00,028.4,025.7,000.0,036.7,029.9,26.2,0000.0,0012.57,0004.80,0004.11
2023-07-24 21:08:00,SystemResetWarning,0834.2,5.00,000.00,028.4,026.2,000.0,036.7,030.0,24.8,0000.0,0011.99,0004.81,0004.12
2023-07-24 21:09:00,SystemResetWarning,0834.2,5.00,000.00,028.5,026.6,000.0,036.8,030.2,25.0,0000.0,0012.00,0004.81,0004.12
2023-07-24 21:10:00,SystemResetWarning,0834.2,5.00,000.00,028.5,027.0,000.0,036.8,030.3,25.9,0000.0,0010.92,0004.80,0004.13
2023-07-24 21:11:00,SystemResetWarning,0834.2,5.00,000.00,028.6,026.8,000.0,036.7,030.3,25.9,0000.0,0010.29,0004.81,0004.16
2023-07-24 21:12:00,SystemResetWarning,0834.1,4.98,000.00,028.5,025.3,000.0,036.7,030.1,26.1,0000.0,0010.34,0004.82,0004.18
2023-07-24 21:13:00,SystemResetWarning,0834.1,5.01,000.00,028.5,024.9,000.0,036.6,029.9,24.9,0000.0,0010.04,0004.89,0004.19
2023-07-24 21:14:00,SystemResetWarning,0834.1,5.01,000.00,028.4,025.2,000.0,036.6,029.9,24.0,0000.0,0010.14,0004.90,0004.19
2023-07-24 21:15:00,SystemResetWarning,0834.1,4.99,000.00,028.4,025.6,000.0,036.7,029.9,25.6,0000.0,0010.68,0004.92,0004.19
2023-07-24 21:16:00,SystemResetWarning,0834.1,4.99,000.00,028.4,026.1,000.0,036.7,030.0,25.1,0000.0,0010.57,0004.97,0004.19
2023-07-24 21:17:00,SystemResetWarning,0834.1,5.00,000.00,028.5,026.6,000.0,036.7,030.2,24.7,0000.0,0010.53,0005.01,0004.18
2023-07-24 21:18:00,SystemResetWarning,0834.1,5.01,000.00,028.5,027.0,000.0,036.8,030.3,23.7,0000.0,0010.38,0004.98,0004.18
2023-07-24 21:19:00,SystemResetWarning,0834.1,5.01,000.00,028.6,027.2,000.0,036.8,030.4,23.2,0000.0,0010.17,0004.95,0004.17
2023-07-24 21:20:00,SystemResetWarning,0834.1,4.99,000.00,028.6,026.1,000.0,036.7,030.2,22.9,0000.0,0010.98,0004.96,0004.18
2023-07-24 21:21:00,SystemResetWarning,0834.0,4.99,000.00,028.5,024.9,000.0,036.6,030.0,22.7,0000.0,0011.94,0005.01,0004.17
2023-07-24 21:22:00,SystemResetWarning,0834.0,5.01,000.00,028.5,025.1,000.0,036.6,030.0,23.2,0000.0,0012.18,0005.08,0004.16
2023-07-24 21:23:00,SystemResetWarning,0834.0,5.01,000.00,028.4,025.4,000.0,036.7,029.9,24.0,0000.0,0012.09,0005.08,0004.14
2023-07-24 21:24:00,SystemResetWarning,0834.0,4.99,000.00,028.4,025.9,000.0,036.7,030.0,22.9,0000.0,0011.93,0005.01,0004.13
2023-07-24 21:25:00,SystemResetWarning,0834.0,5.00,000.00,028.5,026.3,000.0,036.8,030.1,23.9,0000.0,0011.60,0005.01,0004.14
2023-07-24 21:26:00,SystemResetWarning,0834.0,5.01,000.00,028.5,026.8,000.0,036.8,030.2,24.2,0000.0,0011.02,0005.03,0004.13
2023-07-24 21:27:00,SystemResetWarning,0833.9,5.00,000.00,028.6,027.2,000.0,036.8,030.4,23.1,0000.0,0010.98,0005.02,0004.13
2023-07-24 21:28:00,SystemResetWarning,0833.9,4.99,000.00,028.6,027.0,000.0,036.8,030.4,24.2,0000.0,0010.78,0004.97,0004.14
2023-07-24 21:29:00,SystemResetWarning,0833.9,4.99,000.00,028.6,025.6,000.0,036.7,030.1,24.4,0000.0,0011.62,0005.00,0004.15
2023-07-24 21:30:00,SystemResetWarning,0833.9,5.01,000.00,028.5,025.0,000.0,036.7,030.0,23.6,0000.0,0013.13,0005.02,0004.16
2023-07-24 21:31:00,SystemResetWarning,0833.9,5.01,000.00,028.5,025.4,000.0,036.7,030.0,23.4,0000.0,0012.69,0005.04,0004.16
2023-07-24 21:32:00,SystemResetWarning,0833.9,4.99,000.00,028.5,025.8,000.0,036.7,030.0,23.9,0000.0,0011.74,0004.99,0004.16
2023-07-24 21:33:00,SystemResetWarning,0833.9,5.00,000.00,028.5,026.2,000.0,036.8,030.1,24.3,0000.0,0011.25,0004.94,0004.16
2023-07-24 21:34:00,SystemResetWarning,0833.9,5.00,000.00,028.5,026.7,000.0,036.8,030.2,24.6,0000.0,0011.77,0004.95,0004.17
2023-07-24 21:35:00,SystemResetWarning,0833.8,5.00,000.00,028.6,027.1,000.0,036.8,030.3,25.6,0000.0,0011.86,0004.98,0004.20
2023-07-24 21:36:00,SystemResetWarning,0833.9,4.99,000.00,028.6,026.9,000.0,036.8,030.3,23.1,0000.0,0011.98,0005.00,0004.21
2023-07-24 21:37:00,SystemResetWarning,0833.9,4.99,000.00,028.6,025.4,000.0,036.7,030.1,22.1,0000.0,0012.47,0004.99,0004.22
2023-07-24 21:38:00,SystemResetWarning,0833.8,5.02,000.00,028.5,025.0,000.0,036.7,030.0,21.9,0000.0,0012.78,0004.99,0004.22
2023-07-24 21:39:00,SystemResetWarning,0833.8,5.01,000.00,028.5,025.3,000.0,036.7,029.9,22.7,0000.0,0013.30,0004.98,0004.22
2023-07-24 21:40:00,SystemResetWarning,0833.8,5.00,000.00,028.5,025.7,000.0,036.7,030.0,26.0,0000.0,0013.19,0004.97,0004.22
2023-07-24 21:41:00,SystemResetWarning,0833.8,5.00,000.00,028.5,026.2,000.0,036.8,030.1,27.0,0000.0,0011.70,0004.99,0004.23
2023-07-24 21:42:00,SystemResetWarning,0833.8,5.00,000.00,028.6,026.6,000.0,036.8,030.2,25.2,0000.0,0011.43,0004.98,0004.23
2023-07-24 21:43:00,SystemResetWarning,0833.8,5.00,000.00,028.6,027.0,000.0,036.8,030.3,27.7,0000.0,0012.14,0004.97,0004.23
2023-07-24 21:44:00,SystemResetWarning,0833.7,4.98,000.00,028.6,026.0,000.0,036.7,030.2,28.1,0000.0,0012.86,0004.98,0004.23
2023-07-24 21:45:00,SystemResetWarning,0833.9,5.01,000.00,028.5,024.9,000.0,036.7,030.0,25.9,0000.0,0013.09,0005.00,0004.23
2023-07-24 21:46:00,SystemResetWarning,0833.8,5.01,000.00,028.5,025.0,000.0,036.6,029.9,24.6,0000.0,0013.14,0005.00,0004.23
2023-07-24 21:47:00,SystemResetWarning,0833.8,4.99,000.00,028.5,025.4,000.0,036.7,029.9,26.5,0000.0,0013.73,0005.00,0004.23
2023-07-24 21:48:00,SystemResetWarning,0833.8,5.00,000.00,028.5,025.9,000.0,036.7,030.0,27.1,0000.0,0013.47,0004.98,0004.24
2023-07-24 21:49:00,SystemResetWarning,0833.8,5.00,000.00,028.5,026.4,000.0,036.8,030.1,27.3,0000.0,0013.22,0004.98,0004.24
2023-07-24 21:50:00,SystemResetWarning,0833.8,5.00,000.00,028.5,026.8,000.0,036.8,030.3,25.3,0000.0,0012.72,0005.00,0004.25
2023-07-24 21:51:00,SystemResetWarning,0833.9,4.99,000.00,028.6,027.2,000.0,036.8,030.4,26.2,0000.0,0012.22,0005.04,0004.25
2023-07-24 21:52:00,SystemResetWarning,0833.9,4.99,000.00,028.7,027.0,000.0,036.8,030.4,25.8,0000.0,0012.32,0005.05,0004.25
2023-07-24 21:53:00,SystemResetWarning,0833.9,5.00,000.00,028.6,025.5,000.0,036.7,030.2,25.9,0000.0,0012.32,0005.04,0004.26
2023-07-24 21:54:00,SystemResetWarning,0833.9,5.00,000.00,028.6,025.0,000.0,036.7,030.0,26.1,0000.0,0012.02,0005.04,0004.29
2023-07-24 21:55:00,SystemResetWarning,0834.0,5.01,000.00,028.5,025.3,000.0,036.7,030.0,25.7,0000.0,0011.50,0005.02,0004.30
2023-07-24 21:56:00,SystemResetWarning,0833.9,4.99,000.00,028.5,025.7,000.0,036.7,030.0,26.3,0000.0,0010.91,0004.95,0004.30
2023-07-24 21:57:00,SystemResetWarning,0833.9,5.01,000.00,028.5,026.1,000.0,036.8,030.1,27.5,0000.0,0010.47,0004.94,0004.29
2023-07-24 21:58:00,SystemResetWarning,0833.9,4.99,000.00,028.6,026.6,000.0,036.8,030.3,27.4,0000.0,0010.52,0004.99,0004.29
2023-07-24 21:59:00,SystemResetWarning,0834.0,4.99,000.00,028.6,027.0,000.0,036.8,030.3,25.9,0000.0,0011.52,0005.06,0004.29
